K4SHP-15 Weather Reports


time (UTC)temp
C
wind
direction
speed
KPH
gust
KPH
rain 1hr
cm
rain 24hr
cm
rain mn
cm
humidity
%
barometer
mb
20260506024502 17 175 1.6 3.2 0.00 0.00 0.00 84 1015.2
20260506023602 17 175 1.6 3.2 0.00 0.00 0.00 83 1015.4
20260506022702 17 175 1.6 3.2 0.00 0.00 0.00 82 1015.4
20260506021802 18 175 1.6 3.2 0.00 0.00 0.00 82 1015.3
20260506020923 18 175 3.2 4.8 0.00 0.00 0.00 81 1015.2
20260506020002 18 175 3.2 4.8 0.00 0.00 0.00 80 1015.2
20260506015402 18 181 3.2 4.8 0.00 0.00 0.00 80 1015.1
20260506014502 18 184 1.6 4.8 0.00 0.00 0.00 80 1015.1
20260506013602 18 135 3.2 4.8 0.00 0.00 0.00 80 1014.9
20260506012702 18 119 3.2 4.8 0.00 0.00 0.00 79 1014.9
20260506011823 18 128 3.2 4.8 0.00 0.00 0.00 78 1014.9
20260506010902 19 125 3.2 6.4 0.00 0.00 0.00 78 1014.8
20260506010002 19 124 3.2 4.8 0.00 0.00 0.00 77 1014.8
20260506005423 19 126 3.2 6.4 0.00 0.00 0.00 76 1014.6
20260506004503 20 135 3.2 6.4 0.00 0.00 0.00 76 1014.6
20260506003623 20 134 3.2 6.4 0.00 0.00 0.00 75 1014.6
20260506002723 20 143 3.2 8.0 0.00 0.00 0.00 74 1014.6
20260506001802 20 147 3.2 6.4 0.00 0.00 0.00 73 1014.6
20260506000902 20 138 3.2 8.0 0.00 0.00 0.00 71 1014.5
20260506000023 21 129 4.8 8.0 0.00 0.00 0.00 70 1014.5
20260505235403 21 125 4.8 8.0 0.00 0.00 0.00 70 1014.5
20260505234502 21 136 4.8 12.9 0.00 0.00 0.00 69 1014.5
20260505233602 21 138 6.4 12.9 0.00 0.00 0.00 68 1014.4
20260505232723 21 134 4.8 11.3 0.00 0.00 0.00 67 1014.4
20260505231802 21 131 6.4 11.3 0.00 0.00 0.00 66 1014.4
20260505230944 22 129 6.4 12.9 0.00 0.00 0.00 66 1014.4
20260505230002 22 128 6.4 12.9 0.00 0.00 0.00 65 1014.4
20260505225402 22 131 6.4 12.9 0.00 0.00 0.00 65 1014.5
20260505224524 22 125 6.4 12.9 0.00 0.00 0.00 63 1014.5
20260505223602 22 128 8.0 12.9 0.00 0.00 0.00 63 1014.5
20260505222702 22 128 8.0 19.3 0.00 0.00 0.00 63 1014.5
20260505221802 22 127 6.4 19.3 0.00 0.00 0.00 63 1014.4
20260505220923 22 140 4.8 12.9 0.00 0.00 0.00 63 1014.4
20260505220002 23 128 6.4 17.7 0.00 0.00 0.00 62 1014.4
20260505215402 23 136 6.4 17.7 0.00 0.00 0.00 62 1014.5
20260505214502 23 151 4.8 11.3 0.00 0.00 0.00 61 1014.5
20260505213603 23 134 6.4 12.9 0.00 0.00 0.00 61 1014.4
20260505212723 24 161 6.4 12.9 0.00 0.00 0.00 58 1014.4
20260505211803 24 137 6.4 12.9 0.00 0.00 0.00 59 1014.5
20260505210924 23 128 8.0 19.3 0.00 0.00 0.00 59 1014.4
20260505210002 23 126 9.7 20.9 0.00 0.00 0.00 59 1014.4
20260505205402 24 123 8.0 20.9 0.00 0.00 0.00 59 1014.6
20260505204523 24 127 8.0 14.5 0.00 0.00 0.00 59 1014.6
20260505203623 24 132 6.4 17.7 0.00 0.00 0.00 58 1014.5
20260505202724 25 146 6.4 11.3 0.00 0.00 0.00 56 1014.5
20260505201824 24 135 8.0 16.1 0.00 0.00 0.00 58 1014.5
20260505200903 25 132 6.4 14.5 0.00 0.00 0.00 56 1014.9
20260505200002 25 124 6.4 14.5 0.00 0.00 0.00 57 1014.9
20260505195402 25 134 6.4 14.5 0.00 0.00 0.00 55 1014.7
20260505194502 25 162 6.4 11.3 0.00 0.00 0.00 55 1014.7
20260505193602 25 161 6.4 16.1 0.00 0.00 0.00 53 1015.0
20260505192702 25 154 6.4 19.3 0.00 0.00 0.00 55 1015.0
20260505191802 25 135 6.4 11.3 0.00 0.00 0.00 54 1015.2
20260505190902 25 146 6.4 11.3 0.00 0.00 0.00 55 1015.5
20260505190003 24 125 8.0 16.1 0.00 0.00 0.00 55 1015.5
20260505185424 25 122 8.0 14.5 0.00 0.00 0.00 55 1015.5
20260505184502 25 139 8.0 16.1 0.00 0.00 0.00 54 1015.5
20260505183602 25 145 6.4 16.1 0.00 0.00 0.00 55 1015.4
20260505182703 24 125 8.0 14.5 0.00 0.00 0.00 57 1015.4
20260505181803 24 125 8.0 14.5 0.00 0.00 0.00 56 1015.4
20260505180902 24 143 6.4 14.5 0.00 0.00 0.00 54 1015.6
20260505180003 25 157 6.4 12.9 0.00 0.00 0.00 54 1015.6
20260505175403 25 134 8.0 17.7 0.00 0.00 0.00 57 1015.7
20260505174503 25 148 4.8 9.7 0.00 0.00 0.00 55 1015.7
20260505173623 25 141 6.4 11.3 0.00 0.00 0.00 55 1015.9
20260505172702 25 145 6.4 11.3 0.00 0.00 0.00 55 1015.9
20260505171824 25 139 6.4 12.9 0.00 0.00 0.00 54 1015.9
20260505170902 25 147 6.4 11.3 0.00 0.00 0.00 56 1016.0
20260505170003 24 130 4.8 12.9 0.00 0.00 0.00 58 1016.0
20260505165403 25 144 4.8 11.3 0.00 0.00 0.00 57 1016.1
20260505164524 25 190 4.8 9.7 0.00 0.00 0.00 58 1016.1
20260505163624 24 149 4.8 11.3 0.00 0.00 0.00 61 1016.5
20260505162703 24 145 4.8 11.3 0.00 0.00 0.00 58 1016.5
20260505161845 23 130 6.4 12.9 0.00 0.00 0.00 60 1016.5
20260505160903 25 148 3.2 9.7 0.00 0.00 0.00 60 1016.6
20260505152703 24 193 4.8 14.5 0.00 0.00 0.00 58 1016.8
20260505151803 23 183 4.8 14.5 0.00 0.00 0.00 58 1016.7
20260505150903 24 202 4.8 14.5 0.00 0.00 0.00 59 1016.6
20260505124503 18 220 1.6 8.0 0.00 0.00 0.00 84 1016.5
20260505123603 17 209 1.6 6.4 0.00 0.00 0.00 89 1016.5
20260505122724 16 214 3.2 6.4 0.00 0.00 0.00 93 1016.5
20260505121803 15 222 3.2 6.4 0.00 0.00 0.00 97 1016.5
20260505120903 14 207 1.6 8.0 0.00 0.00 0.00 98 1016.2
20260505120003 13 225 0.0 6.4 0.00 0.00 0.00 98 1016.2
20260505115403 12 225 0.0 6.4 0.00 0.00 0.00 98 1016.1
20260505114503 12 0 0.0 0.0 0.00 0.00 0.00 97 1016.1
20260505113603 11 0 0.0 0.0 0.00 0.00 0.00 97 1016.0
20260505112703 11 0 0.0 0.0 0.00 0.00 0.00 97 1016.0
20260505111803 11 0 0.0 0.0 0.00 0.00 0.00 96 1015.8
20260505110903 10 0 0.0 0.0 0.00 0.00 0.00 96 1015.5
20260505101824 10 0 0.0 0.0 0.00 0.00 0.00 96 1015.2
20260505100903 10 0 0.0 0.0 0.00 0.00 0.00 95 1015.1
20260505100003 10 0 0.0 0.0 0.00 0.00 0.00 95 1015.1
20260505095403 10 0 0.0 0.0 0.00 0.00 0.00 95 1014.9
20260505094503 11 0 0.0 0.0 0.00 0.00 0.00 95 1014.9
20260505093624 11 0 0.0 0.0 0.00 0.00 0.00 95 1014.9
20260505092703 11 0 0.0 0.0 0.00 0.00 0.00 95 1014.9
20260505091803 11 0 0.0 0.0 0.00 0.00 0.00 95 1014.9
20260505090903 11 0 0.0 0.0 0.00 0.00 0.00 95 1014.7
20260505090003 11 0 0.0 0.0 0.00 0.00 0.00 95 1014.7
20260505085403 11 0 0.0 0.0 0.00 0.00 0.00 95 1014.5
20260505084503 11 0 0.0 0.0 0.00 0.00 0.00 94 1014.5
20260505083603 11 0 0.0 0.0 0.00 0.00 0.00 94 1014.5
20260505082703 11 0 0.0 0.0 0.00 0.00 0.00 94 1014.5
20260505081803 11 0 0.0 0.0 0.00 0.00 0.00 94 1014.4
20260505080903 11 0 0.0 0.0 0.00 0.00 0.00 93 1014.5
20260505080003 11 0 0.0 0.0 0.00 0.00 0.00 93 1014.5
20260505075403 11 0 0.0 0.0 0.00 0.00 0.00 93 1014.5
20260505074524 11 0 0.0 0.0 0.00 0.00 0.00 93 1014.5
20260505073603 11 0 0.0 0.0 0.00 0.00 0.00 93 1014.5
20260505072703 11 0 0.0 0.0 0.00 0.00 0.00 92 1014.5
20260505071824 11 0 0.0 0.0 0.00 0.00 0.00 92 1014.5
20260505070903 12 0 0.0 0.0 0.00 0.00 0.00 91 1014.6
20260505070003 12 0 0.0 0.0 0.00 0.00 0.00 91 1014.6
20260505065403 12 0 0.0 0.0 0.00 0.00 0.00 91 1014.7
20260505064503 12 0 0.0 0.0 0.00 0.00 0.00 90 1014.7
20260505063624 12 0 0.0 0.0 0.00 0.00 0.00 90 1014.8
20260505062703 12 0 0.0 0.0 0.00 0.00 0.00 89 1014.8
20260505061824 12 0 0.0 0.0 0.00 0.00 0.00 89 1014.9
20260505060903 12 0 0.0 0.0 0.00 0.00 0.00 89 1015.1
20260505060003 12 0 0.0 0.0 0.00 0.00 0.00 88 1015.1
20260505055403 12 0 0.0 0.0 0.00 0.00 0.00 88 1015.2
20260505054503 12 0 0.0 0.0 0.00 0.00 0.00 87 1015.2
20260505053603 12 0 0.0 0.0 0.00 0.00 0.00 87 1015.4
20260505052703 13 231 0.0 3.2 0.00 0.00 0.00 87 1015.4
20260505051803 13 231 0.0 3.2 0.00 0.00 0.00 87 1015.5
20260505050903 13 231 0.0 1.6 0.00 0.00 0.00 86 1015.6
20260505040903 13 0 0.0 0.0 0.00 0.00 0.00 83 1015.5
20260505040004 13 0 0.0 0.0 0.00 0.00 0.00 82 1015.5
20260505035403 14 0 0.0 0.0 0.00 0.00 0.00 82 1015.5
20260505034503 14 0 0.0 0.0 0.00 0.00 0.00 82 1015.5
20260505033601 14 0 0.0 0.0 0.00 0.00 0.00 81 1015.5
20260505032701 15 231 0.0 1.6 0.00 0.00 0.00 81 1015.5
20260505031801 15 231 0.0 1.6 0.00 0.00 0.00 80 1015.5
20260505030901 15 231 0.0 3.2 0.00 0.00 0.00 80 1015.5
20260505030001 15 0 0.0 0.0 0.00 0.00 0.00 77 1015.5
20260505025401 15 0 0.0 0.0 0.00 0.00 0.00 77 1015.6